Location: Grand Lay
(47.3253°N, 0.9468°E)
Time: 05:35:48
(UTC+00:00)

Cosmos 1666 Rocket - Pass Details

Date: 18 January 2026
Orbit: 598 x 625 km, 82.5° (Epoch: 17 February)

Event Time Altitude Azimuth Distance (km) Brightness Sun altitude
Rises 06:33:12 0° 206° (SSW) 2,858 6.9 -10.6°
Reaches altitude 10° 06:35:29 10° 213° (SSW) 1,963 6.0 -10.2°
Maximum altitude 06:39:38 42° 285° (WNW) 881 3.9 -9.6°
Drops below altitude 10° 06:43:50 10° 357° (N) 1,994 5.9 -8.9°
Sets 06:46:11 0° 4° (N) 2,909 6.8 -8.5°
